Temp
69 69 68 70 70 70 70 69 66 62 66 74 71 76 75 75 71 72 70 65 62 62 63 63 64 65 65 66 67 67 67 67 67 67 68 67 67 67
69 69 69 70 69 69 68 68 68 65 62 72 74 74 73 72 70 69 71 63 62 62 61 61 62 63 64 64 65 65 65 65 66 66 66 66 66 65
69 67 67 69 68 68 67 67 66 66 63 68 73 75 73 71 73 68 69 70 69 62 61 61 61 62 63 63 63 63 63 63 64 64 65 65 65 65
67 67 66 67 66 67 67 65 66 67 64 62 68 71 71 71 71 72 73 72 71 67 61 61 61 60 61 61 61 61 62 62 62 63 64 64 64 64
66 66 66 66 66 66 66 65 66 66 66 64 63 68 70 71 69 69 68 70 72 65 62 61 60 60 60 60 60 60 59 60 60 61 61 62 63 63
66 66 66 66 66 66 66 66 66 64 64 63 63 63 66 68 67 64 65 69 67 71 67 65 63 60 60 60 59 59 58 58 59 59 59 59 60 61
65 66 65 64 60 62 64 65 65 63 63 62 61 62 63 64 62 63 61 65 67 70 69 69 67 66 66 60 61 58 57 58 58 59 58 57 58 59
62 64 65 62 62 59 58 58 60 62 62 61 62 61 62 64 64 62 60 60 57 69 66 66 69 67 68 69 64 59 58 57 57 58 58 57 57 57
61 61 62 64 61 64 62 60 59 58 58 61 60 62 63 65 65 62 60 59 59 64 63 59 67 65 68 69 61 59 58 58 56 56 57 57 56 57
60 60 60 61 62 58 59 60 62 64 64 64 61 62 64 66 66 65 64 63 63 63 65 56 62 61 67 69 60 58 58 57 56 56 56 56 56 56
60 60 59 58 56 54 55 56 59 61 62 58 58 57 58 57 59 62 58 57 54 56 62 58 57 58 62 64 67 57 56 56 56 56 56 55 55 55
53 55 55 56 54 53 54 54 54 57 60 61 61 62 59 61 57 59 61 55 55 52 60 57 56 57 54 63 62 63 63 55 54 54 55 55 55 58
51 53 55 53 52 52 52 53 54 55 55 57 59 61 63 64 65 65 63 61 57 57 63 60 58 58 56 55 57 58 59 60 60 57 53 53 53 54
46 48 49 50 50 51 52 52 53 53 55 56 57 58 60 61 64 65 64 64 65 62 65 62 57 58 56 54 53 61 57 58 59 59 60 57 53 53
47 48 48 49 50 51 52 52 51 55 55 54 55 57 59 62 64 64 65 65 64 64 63 64 59 57 56 54 54 58 58 56 57 58 59 58 56 53
45 47 46 46 45 44 44 44 45 48 49 50 51 54 56 56 57 60 59 59 57 56 60 61 61 58 54 54 53 52 56 51 57 56 56 58 59 56
43 43 41 40 39 39 39 40 41 41 40 40 42 48 50 51 52 55 56 54 51 51 52 53 55 55 54 52 49 50 50 51 52 51 50 49 54 57
40 37 36 37 36 37 37 38 40 39 38 39 38 38 39 44 47 50 50 48 47 47 49 51 49 41 40 45 46 45 48 48 49 47 47 45 46 51
37 35 34 35 35 35 36 37 36 39 41 40 38 37 37 37 37 42 47 47 46 47 49 49 47 40 40 39 48 46 45 47 46 42 45 44 45 49
37 34 34 34 35 34 35 35 37 38 39 40 40 40 39 37 35 35 36 39 44 46 45 47 46 45 40 41 43 49 41 45 45 42 41 44 45 44
35 35 36 35 35 35 36 36 36 36 37 38 39 39 39 38 37 36 36 37 37 39 43 44 47 51 48 47 42 43 41 40 45 44 43 39 37 37
34 34 35 35 36 36 36 35 35 36 36 36 37 38 38 38 37 37 36 35 35 36 36 44 49 49 45 41 41 43 45 41 40 41 43 42 35 31
33 34 34 34 34 34 34 35 35 35 36 35 35 37 38 37 38 37 35 36 36 36 39 38 41 46 44 43 41 41 43 42 38 36 37 41 43 42
MSLP
1017.42 1017.53 1017.53 1017.45 1017.49 1017.53 1017.51 1017.38 1017.09 1016.43 1015.52 1014.93 1015.31 1015.12 1015.39 1015.61 1015.86 1016.17 1016.34 1016.41 1016.85 1017.04 1017.21 1017.52 1017.81 1018.08 1018.34 1018.53 1018.76 1018.97 1019.14 1019.31 1019.46 1019.59 1019.68 1019.80 1019.92 1020.10
1016.78 1016.71 1016.76 1016.79 1016.82 1016.89 1016.97 1016.88 1016.68 1016.41 1015.55 1014.96 1014.69 1015.05 1015.32 1015.48 1015.51 1015.83 1015.65 1015.91 1016.09 1016.36 1016.50 1016.59 1016.84 1017.12 1017.34 1017.57 1017.80 1018.10 1018.34 1018.48 1018.68 1018.83 1018.96 1019.08 1019.27 1019.49
1016.22 1016.35 1016.21 1016.18 1016.17 1016.19 1016.31 1016.25 1016.07 1015.99 1015.21 1014.54 1014.53 1014.55 1014.70 1014.93 1014.82 1015.25 1015.17 1015.18 1015.17 1015.44 1015.68 1015.77 1015.88 1016.10 1016.35 1016.54 1016.75 1017.06 1017.34 1017.59 1017.80 1018.01 1018.16 1018.32 1018.51 1018.74
1015.75 1015.74 1015.61 1015.61 1015.60 1015.64 1015.53 1015.46 1015.36 1015.20 1014.97 1014.32 1014.18 1013.94 1013.86 1014.23 1014.24 1014.12 1013.91 1014.15 1014.05 1013.98 1014.41 1014.76 1014.91 1015.03 1015.18 1015.39 1015.72 1015.96 1016.17 1016.49 1016.72 1016.96 1017.21 1017.46 1017.63 1017.82
1015.51 1015.29 1015.04 1015.08 1014.99 1014.90 1014.93 1014.71 1014.66 1014.58 1014.35 1014.12 1013.43 1013.54 1013.28 1013.37 1013.41 1013.60 1013.57 1013.20 1012.94 1013.02 1013.11 1013.35 1013.62 1013.81 1014.02 1014.19 1014.48 1014.60 1014.81 1015.13 1015.44 1015.79 1016.05 1016.37 1016.67 1016.89
1015.38 1015.14 1014.86 1014.65 1014.45 1014.26 1014.16 1014.08 1014.01 1013.92 1013.76 1013.53 1013.13 1012.90 1012.86 1012.73 1012.79 1012.89 1012.48 1012.32 1012.16 1011.97 1012.03 1012.20 1012.22 1012.37 1012.55 1012.77 1012.85 1012.93 1013.28 1013.59 1013.94 1014.39 1014.80 1015.17 1015.50 1015.78
1015.19 1014.86 1014.62 1014.46 1014.39 1014.31 1014.05 1013.59 1013.47 1013.37 1013.19 1012.85 1012.53 1012.30 1012.00 1011.91 1011.80 1012.13 1011.86 1011.45 1010.95 1010.95 1010.86 1010.70 1011.14 1011.24 1011.09 1011.33 1011.06 1011.41 1011.57 1011.78 1012.26 1012.75 1013.16 1013.72 1014.13 1014.46
1015.05 1014.75 1014.44 1014.24 1013.96 1013.99 1013.98 1013.90 1013.76 1013.16 1012.64 1012.44 1011.95 1011.60 1011.36 1011.20 1011.25 1011.23 1011.33 1011.05 1010.45 1009.86 1009.64 1009.22 1009.53 1009.31 1009.36 1009.31 1009.26 1009.84 1010.06 1010.50 1010.88 1011.26 1011.67 1012.10 1012.61 1012.94
1015.18 1014.80 1014.43 1014.05 1013.89 1013.44 1013.17 1012.94 1012.76 1012.73 1012.74 1012.44 1011.62 1011.18 1010.87 1010.83 1010.65 1010.53 1010.57 1010.41 1009.71 1009.46 1009.69 1008.89 1009.02 1008.35 1008.32 1008.05 1008.15 1008.39 1008.76 1009.23 1009.69 1010.15 1010.40 1010.54 1010.78 1011.36
1015.23 1014.91 1014.56 1014.16 1013.90 1013.96 1013.48 1012.61 1011.99 1011.56 1011.37 1011.24 1011.12 1010.93 1010.70 1010.57 1010.34 1010.04 1009.71 1009.29 1008.97 1009.02 1009.23 1008.01 1008.37 1007.57 1007.59 1007.03 1007.11 1007.34 1007.48 1007.58 1007.78 1008.13 1008.51 1008.99 1009.46 1009.83
1015.06 1014.84 1014.66 1014.43 1014.14 1014.22 1013.62 1012.64 1011.80 1011.19 1010.67 1010.53 1010.47 1010.37 1010.19 1010.04 1010.04 1009.84 1009.18 1008.96 1008.05 1008.07 1008.27 1007.91 1007.72 1007.33 1006.87 1006.10 1006.02 1006.12 1006.30 1006.45 1006.62 1006.85 1007.21 1007.74 1008.29 1008.74
1015.63 1015.15 1014.62 1014.39 1014.33 1014.13 1013.63 1012.77 1011.82 1011.12 1010.55 1010.05 1009.78 1009.43 1009.16 1008.94 1008.88 1009.01 1008.48 1007.86 1007.49 1007.00 1007.16 1006.95 1007.06 1007.37 1005.86 1004.65 1005.05 1005.35 1005.28 1005.64 1005.88 1006.19 1006.40 1006.74 1007.37 1008.04
1015.63 1014.91 1014.48 1014.35 1014.28 1013.98 1013.52 1012.81 1011.97 1011.53 1010.81 1010.03 1009.36 1008.71 1008.14 1007.69 1007.44 1007.25 1007.15 1006.93 1006.40 1005.67 1005.86 1006.18 1005.92 1005.98 1005.61 1004.92 1004.79 1005.00 1004.91 1004.78 1004.91 1005.04 1005.36 1005.69 1006.21 1006.68
1016.07 1015.57 1015.05 1014.63 1014.09 1013.56 1012.99 1012.30 1011.83 1011.31 1010.31 1009.41 1008.63 1007.95 1007.39 1006.86 1006.42 1006.17 1006.07 1005.84 1005.40 1004.92 1005.00 1005.06 1004.84 1005.09 1004.82 1004.30 1003.87 1003.84 1004.15 1004.25 1004.31 1004.09 1004.08 1004.17 1004.84 1005.39
1016.40 1015.58 1015.03 1014.40 1013.62 1012.90 1012.41 1012.06 1011.45 1010.45 1009.71 1009.11 1008.36 1007.67 1007.08 1006.57 1006.01 1005.50 1005.06 1004.66 1004.43 1004.22 1004.07 1004.09 1003.96 1004.10 1004.07 1003.47 1003.07 1002.89 1002.94 1003.20 1003.61 1003.39 1003.29 1003.31 1003.61 1004.17
1016.41 1015.46 1015.02 1014.74 1014.34 1014.05 1013.36 1012.83 1012.27 1011.39 1010.44 1009.59 1008.84 1008.04 1007.39 1006.80 1006.02 1005.42 1004.77 1004.30 1003.77 1003.39 1003.42 1003.25 1003.26 1003.24 1002.89 1002.77 1002.78 1002.39 1002.58 1002.42 1002.33 1002.73 1002.83 1002.63 1002.70 1003.01
1017.12 1016.57 1016.15 1015.63 1015.15 1014.71 1014.10 1013.62 1013.05 1012.46 1011.88 1011.33 1010.19 1008.68 1007.68 1007.04 1006.23 1005.54 1004.97 1004.37 1003.86 1003.27 1002.86 1002.84 1002.80 1002.77 1002.50 1002.49 1002.17 1001.91 1001.93 1001.71 1001.71 1001.86 1002.29 1002.07 1001.91 1002.03
1017.86 1017.46 1017.10 1016.61 1016.18 1015.64 1014.99 1014.29 1013.60 1013.11 1012.61 1011.92 1011.03 1010.14 1009.12 1007.83 1006.43 1005.72 1005.15 1004.63 1004.02 1003.51 1002.93 1002.65 1002.45 1002.70 1002.84 1002.09 1002.25 1001.78 1001.46 1001.16 1001.27 1001.41 1001.61 1001.50 1001.12 1001.15
1018.60 1018.32 1017.98 1017.52 1017.04 1016.52 1015.90 1015.11 1014.32 1013.61 1012.91 1012.16 1011.49 1010.69 1009.90 1008.98 1007.94 1006.50 1005.01 1004.29 1003.57 1003.06 1002.50 1002.14 1002.10 1002.22 1001.84 1000.71 1000.57 1000.69 1000.53 1000.41 1000.50 1000.62 1000.66 1000.51 1000.18 1000.15
1019.22 1018.94 1018.55 1018.08 1017.58 1016.99 1016.39 1015.70 1014.86 1013.98 1013.12 1012.32 1011.54 1010.77 1009.99 1009.25 1008.40 1007.48 1006.54 1005.40 1003.53 1002.47 1001.78 1001.42 1001.14 1000.94 1000.92 1000.06 999.42 999.15 999.55 999.53 999.52 999.55 999.85 999.85 999.79 999.88
1019.89 1019.41 1018.93 1018.40 1017.82 1017.26 1016.62 1015.96 1015.24 1014.37 1013.60 1012.62 1011.69 1010.91 1010.09 1009.22 1008.21 1007.45 1006.56 1005.60 1004.54 1003.24 1001.26 1000.44 999.81 999.46 999.33 999.25 998.61 998.01 998.63 998.69 998.42 998.41 998.57 999.01 999.51 999.65
1020.58 1020.10 1019.48 1018.89 1018.21 1017.48 1016.79 1016.06 1015.25 1014.41 1013.58 1012.80 1011.88 1010.93 1010.03 1009.18 1008.17 1007.24 1006.40 1005.41 1004.44 1003.42 1002.17 1000.69 999.03 998.59 998.49 998.36 997.69 997.22 997.18 997.44 997.55 997.56 997.71 997.74 998.28 998.33
1020.91 1020.39 1019.74 1019.07 1018.49 1017.80 1017.12 1016.30 1015.43 1014.61 1013.79 1012.96 1011.99 1010.91 1009.89 1008.87 1007.99 1007.08 1006.17 1005.21 1004.13 1002.93 1001.86 1000.41 999.39 998.27 997.02 997.20 996.97 996.43 996.22 996.28 996.63 996.86 996.70 996.85 996.91 997.02
Wind_Speed
12 12 11 9 9 9 9 9 9 8 9 8 5 5 6 7 8 11 13 15 21 21 22 22 22 22 22 22 22 21 21 21 21 21 21 20 19 19
9 11 12 10 11 9 10 10 10 11 12 7 7 7 5 5 5 10 11 11 16 21 22 22 23 24 24 23 22 22 21 21 22 23 22 22 21 20
11 12 13 13 9 9 9 10 11 11 13 11 11 11 12 11 9 8 8 10 10 20 22 23 24 25 25 25 24 23 23 23 23 23 23 23 23 22
12 12 13 10 13 12 10 13 12 13 11 17 12 11 13 13 13 14 11 10 12 14 23 25 25 26 26 26 25 25 25 25 25 25 24 24 25 24
11 12 13 12 12 11 12 11 11 11 12 11 12 10 10 9 11 12 13 14 11 14 16 23 26 27 27 27 26 27 27 27 26 25 26 24 24 25
10 11 12 13 13 13 12 13 12 12 12 12 11 11 10 10 10 9 11 10 11 11 13 16 19 26 28 29 30 30 28 29 29 28 26 26 25 25
10 9 10 11 12 14 10 12 13 12 11 11 11 11 11 10 11 8 10 10 11 10 10 10 11 12 14 27 27 30 30 31 31 31 29 27 27 28
10 10 10 9 10 14 18 21 19 15 14 12 11 12 15 11 9 9 10 10 10 9 13 12 10 12 12 13 20 29 29 30 30 31 30 29 30 30
11 10 10 8 10 10 11 13 17 22 23 18 17 15 15 14 13 12 13 13 13 9 7 10 9 11 11 12 17 18 23 26 27 28 31 32 32 31
11 11 11 11 10 12 14 14 13 13 13 12 16 17 17 15 15 14 14 14 12 10 12 15 9 12 10 11 15 17 22 24 28 31 33 33 31 32
11 11 11 12 12 18 15 15 15 13 10 13 17 20 22 22 16 12 12 12 13 11 10 12 9 12 12 12 11 16 22 25 27 29 31 32 30 30
13 15 14 10 16 22 16 14 15 14 15 15 15 14 17 17 22 18 13 15 13 12 12 14 9 8 7 8 11 10 10 18 22 24 27 28 28 15
11 10 10 16 20 22 22 16 16 17 19 16 14 12 12 13 11 12 15 14 14 15 9 9 7 8 9 7 4 5 7 9 10 13 24 25 26 23
11 8 9 21 25 24 20 21 22 19 13 12 12 11 11 11 11 11 14 14 14 18 14 13 12 12 11 12 12 8 7 7 8 10 10 14 25 27
12 18 23 23 21 16 19 22 21 11 11 11 12 12 12 12 15 13 14 15 16 16 14 18 14 11 12 14 12 11 10 7 9 10 10 10 10 11
16 11 15 16 16 16 14 13 11 13 13 10 10 11 11 11 11 11 11 10 12 12 14 15 16 15 13 13 12 12 12 8 8 9 10 10 10 10
13 10 10 11 11 11 10 11 11 11 11 11 13 14 10 10 10 9 10 10 12 12 11 8 10 12 12 13 12 11 9 11 8 7 8 9 10 11
11 11 12 11 11 12 12 12 11 13 11 11 11 11 12 14 10 10 10 9 10 10 11 9 6 2 2 8 14 11 11 11 8 8 8 10 11 11
11 11 10 10 10 11 11 12 11 12 15 11 11 11 11 12 16 15 11 10 10 10 11 10 9 5 10 14 6 23 12 11 10 8 11 12 13 11
11 11 10 10 10 10 10 11 12 11 12 12 12 12 12 11 12 12 12 16 13 11 10 9 9 9 10 14 13 10 25 11 10 11 11 10 10 2
11 11 11 11 10 10 10 10 12 11 13 12 12 12 13 13 13 12 13 21 20 15 14 11 11 17 11 9 11 12 4 24 16 11 10 9 8 8
10 10 11 11 11 12 11 11 11 12 12 12 13 13 13 13 14 15 14 14 13 12 14 15 13 10 8 10 14 17 11 6 15 26 17 15 7 7
10 10 11 11 11 11 12 12 13 12 12 13 13 13 14 14 14 13 13 14 14 14 16 15 13 14 11 12 15 14 17 12 6 7 12 21 22 12
Wind_Direction
235 234 237 239 238 239 239 237 244 260 265 246 244 212 231 230 232 226 227 218 217 219 216 217 219 221 224 229 233 235 237 238 239 239 238 238 238 239
237 240 237 239 237 233 236 238 238 246 259 257 247 249 239 239 222 233 238 230 216 223 223 219 219 222 224 226 227 230 234 235 236 238 239 238 237 236
244 242 245 242 241 237 234 236 236 238 251 254 254 253 244 247 238 221 238 233 237 221 228 227 223 222 224 226 226 227 229 231 232 235 238 238 236 235
254 251 251 250 245 243 241 239 239 238 242 258 257 260 251 246 257 259 247 239 241 227 217 228 229 225 224 225 226 226 227 228 228 228 233 237 236 235
269 262 257 252 250 244 242 244 242 245 247 250 261 257 257 251 248 253 257 254 244 238 217 218 226 229 227 226 225 226 225 225 225 225 227 229 234 235
285 275 269 262 257 257 251 248 249 249 247 249 254 260 256 252 244 254 255 240 250 248 236 240 230 230 229 227 227 226 224 223 224 222 223 224 225 228
304 292 279 281 293 284 274 261 253 253 252 252 252 258 257 250 239 238 249 256 256 250 246 240 232 236 233 234 236 230 226 224 222 221 220 220 221 224
314 313 308 294 268 257 257 259 265 272 257 258 260 255 259 262 255 238 253 259 269 216 240 248 241 237 232 233 230 232 230 231 228 224 220 217 220 220
312 315 316 316 310 311 302 266 252 250 251 265 269 263 263 265 268 261 251 251 257 257 261 259 252 251 239 243 233 225 224 230 227 227 225 221 217 219
308 313 313 318 326 345 325 306 293 281 268 255 246 256 263 269 264 269 270 271 263 254 258 265 250 259 257 254 231 231 231 226 223 221 224 225 223 218
303 309 318 315 331 336 322 310 302 295 287 249 251 264 274 274 268 271 259 260 263 257 239 257 253 268 264 260 249 222 226 232 231 226 225 226 226 223
329 323 321 317 331 324 317 312 304 300 301 298 297 281 255 251 248 248 255 253 257 267 243 247 242 252 264 231 240 256 244 239 242 240 236 231 227 224
316 307 301 327 327 318 312 303 300 311 301 294 289 281 276 268 260 252 240 242 248 249 240 219 236 238 240 279 213 227 241 245 241 234 237 234 224 215
314 311 313 315 308 306 305 301 305 304 292 287 287 288 287 281 273 262 256 257 249 254 260 232 247 247 253 258 263 251 227 239 246 244 239 225 225 220
324 314 304 306 329 310 315 314 305 298 306 303 298 297 297 296 294 287 280 264 256 258 255 255 253 241 244 256 263 260 262 216 237 240 238 232 215 212
339 1 7 359 5 358 355 351 349 346 333 310 299 298 302 301 294 295 287 283 273 267 263 260 255 250 249 250 252 256 258 250 209 230 242 240 232 216
5 12 12 8 3 359 355 354 350 351 348 337 334 318 309 302 294 296 294 290 281 282 275 257 249 254 261 259 258 255 255 253 234 222 220 232 230 224
21 18 12 7 5 358 354 350 349 349 344 336 337 333 335 324 299 299 293 284 284 288 290 287 261 221 283 257 235 258 255 255 248 216 219 231 233 223
21 13 8 4 360 357 352 349 342 341 341 339 336 334 333 330 331 321 292 284 282 283 281 273 268 227 255 261 258 213 242 239 235 213 218 227 241 231
12 5 359 355 352 351 348 344 342 336 338 340 336 336 332 329 324 323 318 322 288 272 274 271 262 248 238 261 271 257 207 232 224 226 227 238 243 353
358 354 352 347 344 343 341 338 338 338 336 332 334 333 331 327 321 317 311 314 312 312 283 270 264 258 242 258 261 261 222 219 236 218 218 222 223 229
347 343 343 340 340 339 339 335 332 332 335 331 328 327 326 322 319 318 314 308 303 299 294 299 282 276 255 236 256 266 261 219 227 234 235 201 174 213
338 336 332 335 335 334 334 331 331 329 331 331 325 323 322 320 319 315 311 307 299 299 302 297 296 287 246 242 245 255 258 248 208 218 225 225 222 215